• en Belgique
  • Liste des pays
  • À 7 jours
  • Température de l'eau
  • Carte satellitaire
  • Carte météo
  • Widgets météo
  • user-avatar
    Se connecter

    Météo par heure à Wavre

    Ce jour, 20 Août, Lundi

    Heure Température Précipitation Vent Pression Humidité
    00:00 +20°C° 0 mm 3 m/s 759 mmHg 84%
    01:00 +19°C° 0 mm 3 m/s 758 mmHg 87%
    02:00 +19°C° 0 mm 3 m/s 758 mmHg 89%
    03:00 +19°C° 0 mm 2 m/s 758 mmHg 91%
    04:00 +19°C° 0,1 mm 2 m/s 758 mmHg 91%
    05:00 +19°C° 0,1 mm 2 m/s 758 mmHg 92%
    06:00 +19°C° 0,1 mm 2 m/s 759 mmHg 93%
    07:00 +20°C° 0,1 mm 2 m/s 759 mmHg 92%
    08:00 +20°C° 0,1 mm 2 m/s 759 mmHg 91%
    09:00 +20°C° 0,1 mm 2 m/s 759 mmHg 90%
    10:00 +21°C° 0,1 mm 2 m/s 759 mmHg 87%
    11:00 +23°C° 0,1 mm 2 m/s 759 mmHg 84%
    12:00 +23°C° 0,1 mm 2 m/s 759 mmHg 82%
    13:00 +23°C° 0,1 mm 2 m/s 759 mmHg 81%
    14:00 +23°C° 0,1 mm 2 m/s 759 mmHg 80%
    15:00 +23°C° 0,1 mm 2 m/s 759 mmHg 79%
    16:00 +23°C° 0,1 mm 2 m/s 759 mmHg 81%
    17:00 +21°C° 0,1 mm 2 m/s 759 mmHg 83%
    18:00 +22°C° 0,1 mm 1 m/s 759 mmHg 85%
    19:00 +21°C° 0,1 mm 1 m/s 759 mmHg 86%
    20:00 +21°C° 0,1 mm 1 m/s 760 mmHg 87%
    21:00 +20°C° 0,1 mm 1 m/s 760 mmHg 88%
    22:00 +20°C° 0,1 mm 1 m/s 760 mmHg 88%
    23:00 +18°C° 0,1 mm 0 m/s 760 mmHg 88%

    Demain, 21 Août, Mardi

    Heure Température Précipitation Vent Pression Humidité
    00:00 +18°C° 0,1 mm 0 m/s 760 mmHg 88%
    01:00 +18°C° 0,1 mm 0 m/s 759 mmHg 89%
    02:00 +17°C° 0,1 mm 0 m/s 759 mmHg 89%
    03:00 +19°C° 0,1 mm 1 m/s 759 mmHg 89%
    04:00 +19°C° 0 mm 1 m/s 759 mmHg 89%
    05:00 +19°C° 0 mm 1 m/s 759 mmHg 89%
    06:00 +20°C° 0 mm 1 m/s 759 mmHg 88%
    07:00 +21°C° 0 mm 1 m/s 759 mmHg 82%
    08:00 +23°C° 0 mm 1 m/s 759 mmHg 75%
    09:00 +24°C° 0 mm 1 m/s 759 mmHg 69%
    10:00 +25°C° 0 mm 1 m/s 759 mmHg 65%
    11:00 +26°C° 0 mm 2 m/s 759 mmHg 60%
    12:00 +27°C° 0 mm 2 m/s 759 mmHg 56%
    13:00 +27°C° 0,1 mm 2 m/s 759 mmHg 56%
    14:00 +27°C° 0,1 mm 2 m/s 758 mmHg 56%
    15:00 +28°C° 0,1 mm 2 m/s 758 mmHg 57%
    16:00 +27°C° 0,1 mm 2 m/s 758 mmHg 62%
    17:00 +26°C° 0,1 mm 1 m/s 758 mmHg 68%
    18:00 +24°C° 0,1 mm 1 m/s 757 mmHg 73%
    19:00 +24°C° 0,1 mm 1 m/s 758 mmHg 76%
    20:00 +23°C° 0,1 mm 1 m/s 758 mmHg 79%
    21:00 +22°C° 0,1 mm 1 m/s 758 mmHg 82%
    22:00 +21°C° 0 mm 1 m/s 758 mmHg 85%
    23:00 +20°C° 0 mm 1 m/s 758 mmHg 87%

    Après-demain, 22 Août, Mercredi

    Heure Température Précipitation Vent Pression Humidité
    00:00 +20°C° 0 mm 1 m/s 758 mmHg 89%
    01:00 +20°C° 0 mm 1 m/s 758 mmHg 90%
    02:00 +19°C° 0 mm 1 m/s 757 mmHg 91%
    03:00 +19°C° 0 mm 1 m/s 757 mmHg 93%
    04:00 +19°C° 0 mm 1 m/s 757 mmHg 92%
    05:00 +19°C° 0 mm 1 m/s 757 mmHg 91%
    06:00 +20°C° 0 mm 1 m/s 757 mmHg 90%
    07:00 +21°C° 0 mm 1 m/s 757 mmHg 84%
    08:00 +23°C° 0 mm 2 m/s 757 mmHg 77%
    09:00 +24°C° 0 mm 2 m/s 757 mmHg 71%
    10:00 +25°C° 0 mm 3 m/s 757 mmHg 67%
    11:00 +26°C° 0 mm 3 m/s 757 mmHg 63%
    12:00 +27°C° 0 mm 3 m/s 757 mmHg 58%
    13:00 +27°C° 0 mm 3 m/s 757 mmHg 58%
    14:00 +27°C° 0 mm 3 m/s 756 mmHg 57%
    15:00 +27°C° 0 mm 3 m/s 756 mmHg 57%
    16:00 +26°C° 0 mm 3 m/s 756 mmHg 61%
    17:00 +25°C° 0 mm 2 m/s 756 mmHg 65%
    18:00 +24°C° 0 mm 2 m/s 756 mmHg 69%
    19:00 +23°C° 0 mm 1 m/s 756 mmHg 74%
    20:00 +21°C° 0 mm 1 m/s 757 mmHg 80%
    21:00 +20°C° 0 mm 1 m/s 757 mmHg 85%
    22:00 +20°C° 0 mm 1 m/s 757 mmHg 86%
    23:00 +19°C° 0 mm 1 m/s 756 mmHg 88%

    23 Août, Jeudi

    Heure Température Précipitation Vent Pression Humidité
    00:00 +19°C° 0 mm 1 m/s 756 mmHg 89%
    01:00 +18°C° 0 mm 1 m/s 756 mmHg 90%
    02:00 +17°C° 0 mm 2 m/s 756 mmHg 91%
    03:00 +17°C° 0 mm 2 m/s 755 mmHg 92%
    04:00 +17°C° 0 mm 2 m/s 755 mmHg 91%
    05:00 +17°C° 0 mm 2 m/s 755 mmHg 90%
    06:00 +18°C° 0 mm 2 m/s 755 mmHg 89%
    07:00 +19°C° 0 mm 3 m/s 755 mmHg 84%
    08:00 +20°C° 0 mm 3 m/s 755 mmHg 78%
    09:00 +22°C° 0 mm 3 m/s 755 mmHg 73%
    10:00 +23°C° 0,1 mm 4 m/s 755 mmHg 71%
    11:00 +23°C° 0,1 mm 4 m/s 754 mmHg 68%
    12:00 +25°C° 0,1 mm 4 m/s 754 mmHg 66%
    13:00 +25°C° 0,4 mm 4 m/s 754 mmHg 68%
    14:00 +23°C° 0,4 mm 5 m/s 754 mmHg 70%
    15:00 +23°C° 0,4 mm 5 m/s 754 mmHg 72%
    16:00 +22°C° 0,2 mm 4 m/s 754 mmHg 73%
    17:00 +21°C° 0,2 mm 3 m/s 754 mmHg 75%
    18:00 +20°C° 0,2 mm 3 m/s 753 mmHg 76%
    19:00 +18°C° 0 mm 3 m/s 754 mmHg 78%
    20:00 +17°C° 0 mm 3 m/s 754 mmHg 80%
    21:00 +14°C° 0 mm 3 m/s 754 mmHg 82%
    22:00 +14°C° 0 mm 3 m/s 754 mmHg 85%
    23:00 +13°C° 0 mm 3 m/s 754 mmHg 89%

    24 Août, Vendredi

    Heure Température Précipitation Vent Pression Humidité
    00:00 +12°C° 0 mm 3 m/s 754 mmHg 92%
    01:00 +12°C° 0 mm 3 m/s 754 mmHg 92%
    02:00 +13°C° 0 mm 3 m/s 754 mmHg 92%
    03:00 +13°C° 0 mm 3 m/s 753 mmHg 93%
    04:00 +13°C° 0,1 mm 3 m/s 754 mmHg 90%
    05:00 +13°C° 0,1 mm 3 m/s 754 mmHg 87%
    06:00 +13°C° 0,1 mm 3 m/s 754 mmHg 84%
    07:00 +14°C° 0,1 mm 4 m/s 754 mmHg 78%
    08:00 +14°C° 0,1 mm 4 m/s 754 mmHg 73%
    09:00 +15°C° 0,1 mm 4 m/s 755 mmHg 67%
    10:00 +17°C° 0,2 mm 4 m/s 755 mmHg 62%
    11:00 +17°C° 0,2 mm 5 m/s 755 mmHg 56%
    12:00 +19°C° 0,2 mm 5 m/s 755 mmHg 51%
    13:00 +17°C° 0,3 mm 5 m/s 755 mmHg 52%
    14:00 +17°C° 0,3 mm 5 m/s 755 mmHg 52%
    15:00 +17°C° 0,3 mm 5 m/s 755 mmHg 53%
    16:00 +17°C° 0,1 mm 4 m/s 755 mmHg 57%
    17:00 +16°C° 0,1 mm 3 m/s 755 mmHg 61%
    18:00 +16°C° 0,1 mm 2 m/s 755 mmHg 65%
    19:00 +14°C° 0 mm 2 m/s 755 mmHg 69%
    20:00 +12°C° 0 mm 3 m/s 756 mmHg 72%
    21:00 +11°C° 0 mm 3 m/s 756 mmHg 76%
    22:00 +11°C° 0 mm 3 m/s 756 mmHg 78%
    23:00 +10°C° 0 mm 3 m/s 756 mmHg 80%

    25 Août, Samedi

    Heure Température Précipitation Vent Pression Humidité
    00:00 +10°C° 0 mm 3 m/s 756 mmHg 82%
    01:00 +10°C° 0,1 mm 3 m/s 756 mmHg 84%
    02:00 +9°C° 0,1 mm 3 m/s 756 mmHg 86%
    03:00 +9°C° 0,1 mm 3 m/s 756 mmHg 88%
    04:00 +9°C° 0,1 mm 3 m/s 756 mmHg 87%
    05:00 +10°C° 0,1 mm 3 m/s 756 mmHg 86%
    06:00 +10°C° 0,1 mm 4 m/s 756 mmHg 86%
    07:00 +12°C° 0,2 mm 4 m/s 756 mmHg 79%
    08:00 +14°C° 0,2 mm 4 m/s 756 mmHg 72%
    09:00 +16°C° 0,2 mm 5 m/s 756 mmHg 65%
    10:00 +16°C° 0,3 mm 5 m/s 756 mmHg 63%
    11:00 +17°C° 0,3 mm 5 m/s 755 mmHg 60%
    12:00 +19°C° 0,3 mm 5 m/s 755 mmHg 57%
    13:00 +19°C° 0,3 mm 5 m/s 755 mmHg 56%
    14:00 +19°C° 0,3 mm 4 m/s 755 mmHg 55%
    15:00 +19°C° 0,3 mm 4 m/s 755 mmHg 54%
    16:00 +18°C° 0,1 mm 3 m/s 755 mmHg 58%
    17:00 +17°C° 0,1 mm 3 m/s 755 mmHg 62%
    18:00 +16°C° 0,1 mm 2 m/s 755 mmHg 66%
    19:00 +15°C° 0,1 mm 2 m/s 755 mmHg 70%
    20:00 +13°C° 0,1 mm 1 m/s 756 mmHg 74%
    21:00 +12°C° 0,1 mm 1 m/s 756 mmHg 78%
    22:00 +12°C° 0,1 mm 1 m/s 756 mmHg 79%
    23:00 +11°C° 0,1 mm 1 m/s 756 mmHg 81%
    Voir plus